RH
60 45 37 36 53 71 57 64 76 69 60 56 50 54 51 46 70 87 85 77 93 94 97 86 54 26 18
44 38 40 38 64 83 97 90 73 60 58 60 70 77 92 91 92 95 97 88 73 78 89 86 73 44 16
47 47 49 40 65 78 60 68 61 67 70 64 68 81 84 89 92 92 90 90 85 88 87 84 81 63 25
61 68 60 48 57 76 86 71 73 58 60 55 72 75 82 78 88 96 91 97 99 99 99 99 86 70 36
78 80 73 59 65 74 86 79 75 60 60 54 50 53 64 66 80 81 84 91 94 94 99 99 97 78 49
72 62 50 71 85 86 90 90 90 69 83 76 72 60 80 95 78 78 79 82 83 88 92 98 100 86 62
61 50 47 68 92 94 93 92 89 81 88 98 77 72 85 63 63 75 81 86 86 81 89 99 100 98 77
50 38 48 72 84 73 69 67 64 71 83 94 85 83 84 65 53 76 88 92 90 88 85 97 99 100 85
46 48 59 70 69 74 80 93 86 71 80 96 82 93 68 57 67 75 93 99 100 100 100 92 99 100 96
52 61 71 70 76 85 92 100 98 99 100 97 89 100 100 95 72 79 94 97 98 98 97 98 99 99 99
91 85 81 82 75 76 98 97 91 94 90 93 84 93 100 100 92 70 84 96 98 98 99 98 98 99 74
91 84 92 95 85 90 98 100 93 89 87 96 93 91 99 98 94 69 69 88 97 97 99 98 98 99 99
90 97 88 94 87 93 90 96 87 84 85 83 85 96 98 99 100 74 86 86 96 98 98 98 98 99 99
96 93 96 96 97 95 92 86 90 85 80 86 88 97 97 99 100 96 85 97 96 97 97 99 98 98 99
94 94 94 93 95 87 87 89 91 85 81 87 93 99 100 100 99 94 96 98 98 98 97 97 99 98 98
98 94 87 94 93 85 84 87 90 86 82 84 89 82 82 78 90 93 90 97 98 97 98 98 96 99 99
84 79 89 90 93 83 82 86 91 94 86 87 90 93 96 97 87 98 97 92 93 95 97 98 97 97 98
Wind_Speed
32 32 31 29 27 25 27 29 31 32 35 35 33 30 27 31 31 31 33 32 29 28 27 26 24 21 19
34 32 31 28 26 25 26 31 33 31 31 30 28 25 25 25 26 29 30 29 29 31 30 29 27 23 21
35 32 30 28 26 29 31 29 30 25 24 25 27 29 32 30 31 33 34 34 32 30 30 31 29 25 23
32 34 32 29 28 29 31 30 27 26 27 28 27 26 28 29 28 26 27 28 26 27 29 30 29 27 23
31 34 35 35 33 32 32 33 31 28 31 30 31 33 34 32 27 27 30 31 29 29 26 29 29 28 25
33 35 36 31 30 30 31 32 33 31 32 39 33 34 34 33 29 27 27 26 30 29 27 28 30 28 25
31 30 30 27 28 28 28 28 31 30 34 31 30 28 31 31 27 27 26 27 27 30 32 29 32 31 27
27 29 26 27 29 31 32 32 32 31 29 31 27 27 30 33 26 23 25 24 26 27 30 31 30 34 29
27 25 23 24 23 22 22 24 28 28 25 19 27 33 35 31 23 25 32 22 23 23 26 27 28 32 29
24 22 22 24 19 18 20 21 20 20 18 24 32 30 26 31 29 24 29 22 20 21 25 22 23 22 25
25 25 23 20 23 21 18 19 21 26 27 26 34 32 25 29 33 30 31 25 19 20 16 17 28 28 27
26 25 24 26 25 19 19 20 23 24 25 22 26 24 28 32 29 29 27 23 19 16 18 14 18 20 28
26 24 24 22 22 21 21 21 22 22 22 21 21 21 22 21 25 28 29 27 18 13 11 11 11 14 31
24 24 24 23 23 22 23 21 23 24 18 16 19 16 19 20 21 25 23 21 20 16 11 10 8 12 26
24 23 22 24 23 23 18 18 20 22 20 17 15 15 17 17 20 17 18 17 16 14 11 7 9 9 15
19 22 23 23 23 24 21 19 21 21 19 18 20 22 18 16 13 17 16 13 14 12 10 10 9 14 11
22 21 18 20 21 23 23 20 19 18 17 17 17 17 19 21 20 16 17 18 16 14 10 9 10 9 15
Wind_Direction
310 312 313 313 310 307 305 308 304 303 304 300 298 298 291 283 286 283 283 283 278 273 273 274 271 267 256
311 316 319 319 313 309 299 295 297 299 300 303 304 296 285 279 279 284 287 289 284 274 269 269 269 265 255
310 314 316 321 315 307 309 313 315 311 309 307 305 304 302 288 278 276 281 288 286 269 263 263 265 266 257
308 310 314 318 320 318 314 313 318 318 307 306 302 304 302 303 294 286 281 275 276 281 262 258 256 256 252
304 307 309 312 314 317 313 316 314 318 316 316 313 301 300 299 288 287 285 277 273 279 271 255 253 250 248
298 302 304 309 314 312 310 309 309 312 315 308 307 307 308 308 302 298 280 277 274 270 266 254 248 245 241
300 303 304 306 306 306 308 308 303 303 315 304 305 307 312 307 310 313 292 275 269 267 269 260 244 240 235
299 301 300 299 300 301 300 300 302 301 310 306 311 315 313 312 315 313 298 280 265 264 265 270 247 237 228
297 297 297 303 309 307 305 305 303 304 312 309 316 313 315 316 323 326 312 290 264 260 265 266 248 240 228
299 301 303 307 309 308 307 311 309 305 313 315 308 314 311 311 319 318 320 310 294 271 266 258 235 233 234
298 300 303 303 310 309 308 309 303 298 303 308 304 306 293 302 307 319 315 324 318 293 286 263 221 231 226
292 296 302 306 307 307 297 301 306 303 306 307 301 296 297 299 301 317 312 315 316 310 291 274 236 226 226
287 293 304 306 306 305 292 302 306 306 311 309 306 293 301 294 301 311 318 319 320 313 290 266 247 224 213
279 295 301 303 305 309 306 304 299 306 314 318 312 295 300 302 305 308 318 307 315 305 318 277 256 232 219
278 286 292 298 300 316 311 307 303 311 318 334 332 311 299 295 299 313 323 323 317 310 292 278 249 252 235
277 288 291 292 299 308 311 302 297 302 310 322 326 326 324 315 327 327 324 321 327 319 299 284 257 234 228
288 289 284 285 294 301 301 295 296 296 297 299 308 325 327 322 323 331 319 321 321 327 316 289 274 245 234